Regional Weather Roundup
Issued by NWS Northern Indiana

Home | Current Version | Previous Version | Text Only | Print | Product List | Glossary On
Versions: 1 2 3 4 5 6 7 8 9 10 11 12 13 14 15 16 17 18 19 20 21 22 23 24 25 26 27 28 29 30 31 32 33 34 35 36 37 38 39 40 41 42 43 44 45 46 47 48 49 50
675
ASUS43 KIWX 121010
RWRIWX

KIWX WEATHER ROUNDUP
NATIONAL WEATHER SERVICE NORTHERN INDIANA
500 AM EST FRI FEB 12 2016

NOTE: "FAIR" INDICATES FEW OR NO CLOUDS BELOW 12,000 FEET WITH NO
SIGNIFICANT WEATHER AND/OR OBSTRUCTIONS TO VISIBILITY.

* THESE STATIONS ARE NOT UNDER NWS QUALITY CONTROL. THEY ALSO MAY NOT
  REPORT WEATHER SUCH AS PRECIPITATION OR FOG.

INZ001>027-121100-
NORTHERN INDIANA

CITY           SKY/WX    TMP DP  RH WIND       PRES   REMARKS
VALPARAISO     CLOUDY    18  11  74 SW8       30.17F WCI   8
MICHIGAN CITY* CLOUDY    18   9  68 SW6       30.17S WCI   9
LAPORTE*       CLOUDY    18  11  76 SW6       30.16F WCI  10
KNOX*          CLOUDY    18  12  79 SW3       30.17F
SOUTH BEND     CLOUDY    14   6  70 SW10      30.15F WCI   1
GOSHEN         CLOUDY    16   8  71 SW7       30.15F WCI   6
MONTICELLO*    CLOUDY    18  11  73 S5        30.18F WCI  11
LOGANSPORT*    CLOUDY    19  10  68 SW6       30.19F WCI  11
ROCHESTER*     CLOUDY    18   9  68 CALM      30.17F
WARSAW*        CLOUDY    18  10  73 SW6       30.15F WCI   9
ANGOLA*        CLOUDY     9   3  78 CALM      30.12F
FORT WAYNE     CLOUDY    15   8  73 SW8       30.17F WCI   4
HUNTINGTON*    CLOUDY    13   6  75 CALM      30.17S
PERU/GRISSOM   CLOUDY    17  11  77 SW6       30.16F WCI   9
MARION*        CLOUDY    15   5  64 S5        30.18S WCI   8

$$
INZ028>050-121100-
CENTRAL INDIANA

CITY           SKY/WX    TMP DP  RH WIND       PRES   REMARKS
LAFAYETTE      CLOUDY    18  13  80 CALM      30.20F
KOKOMO*        CLOUDY    16  10  79 CALM      30.18S
MUNCIE*        CLOUDY    17   9  70 SW5       30.17F WCI  10
INDIANAPOLIS   MOCLDY    21   9  59 CALM      30.18S

$$
MIZ043>046-050>051-056>058-064>065-071>073-077>080-121100-
SOUTHWEST LOWER MICHIGAN

CITY           SKY/WX    TMP DP  RH WIND       PRES   REMARKS
BATTLE CREEK   CLOUDY    15   6  67 SW12      30.09F WCI   2
BENTON HARBOR  CLOUDY    23   9  55 W15       30.13F WCI  10
COLDWATER*     CLOUDY    14   7  73 SW6       30.11F WCI   5
HILLSDALE*     CLOUDY    13   6  70 SW7       30.09F WCI   3
HOLLAND        CLOUDY    23  11  60 W13       30.09F WCI  11
GRAND RAPIDS   CLOUDY    19  10  68 SW10      30.07F WCI   7
KALAMAZOO      CLOUDY    15   6  67 SW7       30.10F WCI   5
STURGIS*       CLOUDY    12   8  81 SW3       30.12F
THREE RIVERS*  CLOUDY    13   9  83 SW7       30.13F WCI   2

$$
OHZ001>008-015>018-024>025-121100-
NORTHWEST OHIO

CITY           SKY/WX    TMP DP  RH WIND       PRES   REMARKS
DEFIANCE       CLOUDY    14   9  80 SW5       30.17F WCI   6
FINDLAY        MOCLDY     9   3  77 S6        30.16F WCI  -1
TOLEDO EXPRESS CLOUDY    12   7  80 SW6       30.16F WCI   3
TOLEDO METCALF CLOUDY    14   7  73 SW8       30.18F WCI   3
LIMA           CLEAR     12   6  77 S7        30.16F WCI   1

$$
AND FOR LAKE MICHIGAN COASTAL AND OPEN LAKE BUOY OBSERVATIONS

STATION/POSITION TEMP    WIND        PRES    VSBY  WAVE
                 AIR SEA DIR/SP/G                  HT/PER
                 (F)     (DEG/KT/KT) (MB)    (MI)  (FT/S)
CALUMET HARBOR    20     220/  6/  9 1021.0F
MICHIGAN CITY     19     190/ 11/ 13   N/A
BURNS HARBOR      20     220/  7/ 11 1022.4F
SAINT JOSEPH      25     230/ 15/ 20 1020.3F

$$
&&




USA.gov is the U.S. government's official web portal to all federal, state and local government web resources and services.